CAPE
0 0 0 0 0 0 0 0 0 0 0 0 0 0 0 0 0 0 0 0 0 0 0 0 0 0 0 0 0 0 0 0 3 110 415 1 0 1 24 37 73 110 0 21 593
0 0 0 0 0 0 0 0 0 0 0 0 0 0 0 0 0 0 0 0 0 0 0 0 0 0 0 0 0 0 0 0 7 73 108 0 0 2 4 0 76 550 16 199 632
0 0 0 0 0 0 0 0 0 0 0 0 0 0 0 0 0 0 0 0 0 0 0 0 0 0 0 0 0 0 0 0 389 135 44 12 0 0 72 9 0 732 1025 1043 901
0 0 0 0 0 0 0 0 0 0 0 0 0 0 0 0 3 0 0 0 0 0 0 0 0 0 0 0 0 0 0 49 71 70 1 80 55 56 18 31 74 1108 905 738 720
0 0 0 0 0 0 0 0 0 0 0 0 0 0 0 0 0 0 4 0 0 0 0 0 0 0 0 0 0 0 0 42 26 0 1 3 0 0 37 62 760 819 626 665 775
0 0 0 0 0 0 0 0 0 0 0 0 0 0 0 0 0 4 22 76 1 0 0 0 0 0 0 1 3 0 1 10 3 0 6 72 0 36 112 154 249 207 558 527 543
0 0 0 0 0 0 0 0 0 0 0 0 0 0 0 0 0 0 73 37 19 16 5 4 0 0 5 35 0 6 0 8 0 38 0 59 118 94 166 286 196 221 259 111 230
0 0 0 0 0 0 0 0 0 0 0 0 0 0 0 0 0 0 32 90 70 31 19 15 2 0 0 0 0 0 0 0 0 8 9 1 5 117 163 220 264 253 153 139 113
0 0 0 0 0 0 0 0 0 0 0 0 0 0 0 0 0 0 7 49 21 24 17 0 0 0 1 0 0 0 0 0 1 0 1 7 8 133 206 203 196 184 139 59 17
0 0 0 0 0 0 0 0 0 0 0 0 0 0 1 0 0 0 8 2 21 61 5 9 11 2 0 0 0 0 0 0 0 0 12 0 3 88 194 218 144 137 152 95 4
0 0 0 0 0 0 0 0 0 0 0 0 0 0 0 0 6 16 7 0 2 39 21 22 0 0 0 0 0 0 2 26 1 0 0 0 0 34 68 133 44 193 213 201 137
0 0 0 0 0 0 0 0 0 0 0 0 0 0 0 0 5 3 0 0 5 27 13 0 1 0 0 0 0 0 3 0 0 0 0 1 9 0 23 25 217 356 363 382 303
0 0 0 0 0 0 0 0 0 0 0 0 0 0 0 0 7 2 0 0 0 0 0 7 0 0 2 0 0 8 2 2 17 0 0 13 0 6 14 75 177 267 384 459 491
0 0 0 0 0 0 0 0 0 0 0 0 0 0 0 0 3 0 0 0 9 0 0 0 0 1 6 0 0 4 0 2 1 5 0 3 11 9 23 89 181 302 329 452 559
0 0 0 0 0 0 0 0 0 3 0 0 0 0 0 0 0 0 0 0 0 19 4 14 0 6 0 1 28 0 0 64 20 14 4 0 0 1 6 46 173 314 446 559 604
0 0 0 0 0 0 0 25 2 39 0 0 0 0 0 0 0 0 0 0 0 0 0 0 0 0 12 0 7 58 35 61 34 25 15 0 1 2 0 63 199 247 403 493 554
0 0 0 0 0 0 0 135 2 4 0 0 0 0 0 0 0 0 0 0 0 0 0 0 0 3 40 0 13 16 19 29 4 19 18 29 51 58 3 45 54 207 338 467 357
0 0 0 0 0 1 11 30 0 0 0 0 0 0 0 0 0 0 0 0 0 0 0 29 26 26 3 0 23 66 0 1 30 9 98 13 14 166 54 72 284 245 267 362 368
0 0 0 0 0 0 37 1 0 0 0 0 0 0 0 0 4 0 0 0 0 0 8 3 17 0 39 11 0 0 61 62 12 0 0 0 0 201 40 10 125 279 322 410 381
0 0 0 0 0 2 21 0 0 0 0 1 0 0 0 0 0 1 0 0 0 7 27 0 0 0 21 12 2 0 0 42 0 0 0 0 0 91 33 0 32 223 315 397 286
0 0 0 0 0 15 5 2 0 0 2 0 0 0 0 3 5 5 0 0 0 23 62 38 0 52 3 4 0 3 6 0 0 24 7 3 9 36 0 0 0 90 239 340 130
0 0 0 0 2 0 0 0 0 2 1 0 0 0 7 6 6 0 0 0 0 0 4 0 16 0 38 0 0 0 2 2 0 0 3 0 0 0 0 0 0 0 108 184 36
1 9 52 2 0 0 0 0 0 0 4 0 0 0 0 3 22 3 8 43 12 1 0 7 1 0 0 19 0 0 0 0 0 10 0 0 0 0 0 0 0 0 2 8 3
13 7 93 21 0 0 0 0 0 4 2 2 2 0 0 0 23 7 1 20 8 0 0 2 0 0 0 0 26 27 0 0 0 0 0 0 0 0 0 0 0 0 0 0 0
21 0 2 12 1 0 9 0 0 14 3 0 25 13 0 0 1 1 3 84 0 0 0 0 0 0 0 0 10 10 5 8 0 0 0 0 0 0 0 0 0 0 0 0 0
10 9 34 24 6 0 0 6 16 39 1 0 39 28 0 0 0 0 52 217 15 4 0 0 0 0 0 0 0 0 0 0 0 0 0 0 0 0 0 0 0 0 0 0 0
1 39 71 7 0 0 0 16 10 54 4 0 64 72 21 100 171 291 177 213 82 103 0 16 15 6 0 0 0 0 0 0 0 0 0 0 0 0 0 0 0 0 0 0 0
CIN
-0 -0 -0 -0 -0 -0 -0 -0 -0 -0 -0 -0 -0 -0 -0 -0 -0 -0 -0 -0 -0 -0 -0 -0 -0 -0 -0 -0 -0 -0 -0 -0 -1 -38 -86 -39 -0 -106 -97 -58 -35 -37 -0 -83 -9
-0 -0 -0 -0 -0 -0 -0 -0 -0 -0 -0 -0 -0 -0 -0 -0 -0 -0 -0 -0 -0 -0 -0 -0 -0 -0 -0 -0 -0 -0 -0 -0 -12 -74 -89 -48 -0 -133 -23 -0 -24 -38 -39 -57 -22
-0 -0 -0 -0 -0 -0 -0 -0 -0 -0 -0 -0 -0 -0 -0 -0 -0 -0 -0 -0 -0 -0 -0 -0 -0 -0 -0 -0 -0 -0 -0 -0 -45 -37 -86 -166 -0 -0 -7 -23 -0 -4 -2 -7 -0
-0 -0 -0 -0 -0 -0 -0 -0 -0 -0 -0 -0 -0 -0 -0 -0 -39 -0 -0 -0 -0 -0 -0 -0 -0 -0 -0 -0 -0 -0 -2 -11 -79 -89 -75 -84 -68 -7 -6 -10 -58 -19 -34 -1 -10
-0 -0 -0 -0 -0 -0 -0 -0 -0 -0 -0 -0 -0 -0 -0 -0 -0 -0 -75 -0 -0 -0 -0 -0 -0 -0 -0 -0 -0 -0 -0 -42 -70 -5 -25 -7 -4 -0 -22 -26 -4 -13 -13 -3 -9
-0 -0 -0 -0 -0 -0 -0 -0 -0 -0 -0 -0 -0 -0 -0 -0 -0 -121 -127 -161 -50 -0 -0 -0 -0 -0 -0 -4 -11 -0 -2 -21 -42 -0 -4 -5 -2 -71 -26 -22 -28 -7 -7 -6 -22
-0 -0 -0 -0 -0 -0 -0 -0 -0 -0 -0 -0 -0 -0 -0 -0 -0 -0 -112 -109 -104 -87 -124 -85 -0 -0 -13 -3 -0 -7 -0 -10 -3 -29 -0 -25 -24 -17 -1 -18 -29 -2 -8 -10 -3
-0 -0 -0 -0 -0 -0 -0 -0 -0 -0 -0 -0 -0 -0 -0 -0 -0 -0 -118 -70 -64 -68 -78 -70 -69 -2 -14 -0 -0 -0 -0 -0 -0 -7 -29 -2 -29 -31 -33 -19 -0 -1 -5 -6 -12
-0 -0 -0 -0 -0 -0 -0 -0 -0 -0 -0 -0 -0 -0 -0 -0 -0 -0 -57 -76 -54 -66 -68 -0 -0 -0 -3 -4 -0 -0 -0 -0 -4 -0 -0 -17 -7 -11 -20 -12 -8 -11 -24 -47 -97
-0 -0 -0 -0 -0 -0 -0 -0 -0 -0 -0 -0 -0 -0 -68 -0 -0 -0 -89 -20 -24 -44 -73 -46 -29 -1 -0 -0 -0 -0 -0 -0 -0 -0 -5 -3 -11 -8 -10 -17 -36 -27 -26 -46 -119
-0 -0 -0 -0 -0 -0 -0 -0 -0 -0 -0 -0 -0 -0 -0 -0 -140 -126 -94 -0 -8 -30 -27 -10 -0 -0 -0 -0 -0 -0 -28 -4 -33 -0 -0 -0 -0 -38 -19 -3 -0 -14 -11 -24 -42
-0 -0 -0 -0 -0 -0 -0 -0 -0 -0 -0 -0 -0 -0 -0 -0 -156 -100 -0 -0 -6 -14 -81 -0 -0 -0 -0 -4 -1 -23 -6 -5 -0 -0 -0 -8 -11 -12 -39 -27 -5 -2 -2 -2 -30
-0 -0 -0 -0 -0 -0 -0 -0 -0 -0 -0 -0 -0 -0 -0 -0 -141 -41 -0 -0 -0 -0 -0 -8 -0 -0 -19 -0 -0 -4 -11 -10 -6 -0 -0 -10 -0 -46 -36 -16 -10 -20 -22 -21 -30
-0 -0 -0 -0 -0 -0 -0 -0 -0 -0 -0 -0 -0 -0 -0 -0 -131 -37 -0 -0 -4 -10 -0 -0 -0 -9 -25 -0 -0 -15 -0 -8 -2 -20 -0 -28 -46 -31 -33 -32 -30 -36 -31 -10 -15
-0 -0 -0 -0 -0 -0 -0 -0 -0 -2 -0 -0 -0 -0 -0 -0 -0 -0 -0 -0 -0 -6 -5 -6 -0 -67 -0 -10 -4 -4 -0 -21 -1 -1 -16 -0 -0 -87 -60 -60 -40 -26 -12 -3 -3
-0 -0 -0 -0 -0 -0 -0 -92 -7 -1 -0 -0 -0 -0 -0 -0 -0 -0 -0 -0 -6 -0 -0 -7 -0 -10 -7 -6 -8 -30 -28 -8 -8 -7 -19 -0 -24 -4 -12 -12 -26 -50 -50 -27 -19
-0 -0 -0 -0 -0 -0 -0 -25 -0 -1 -0 -0 -0 -0 -0 -0 -0 -0 -0 -0 -0 -0 -2 -0 -0 -18 -12 -0 -34 -14 -2 -3 -28 -38 -10 -5 -13 -46 -20 -70 -69 -46 -71 -44 -53
-0 -0 -0 -0 -0 -0 -0 -5 -0 -0 -0 -0 -0 -0 -0 -0 -0 -0 -0 -0 -0 -0 -0 -8 -22 -29 -5 -0 -39 -27 -0 -29 -16 -6 -0 -75 -24 -15 -58 -89 -38 -73 -89 -67 -52
-0 -0 -0 -0 -0 -0 -0 -0 -0 -0 -0 -0 -0 -0 -0 -0 -2 -0 -0 -0 -0 -0 -4 -22 -17 -0 -7 -15 -4 -0 -5 -5 -3 -0 -0 -0 -0 -57 -104 -133 -76 -90 -92 -71 -49
-0 -0 -0 -0 -0 -0 -0 -0 -0 -0 -0 -1 -0 -0 -3 -0 -0 -1 -0 -0 -0 -1 -36 -0 -0 -0 -25 -54 -27 -0 -0 -13 -2 -0 -0 -0 -0 -17 -68 -0 -126 -93 -92 -72 -83
-0 -0 -0 -0 -0 -0 -0 -1 -0 -0 -4 -0 -0 -0 -0 -3 -3 -1 -0 -0 -0 -9 -19 -27 -0 -4 -41 -33 -0 -16 -19 -0 -0 -4 -3 -33 -11 -43 -0 -0 -0 -96 -86 -67 -133
-0 -0 -0 -0 -0 -0 -0 -0 -0 -9 -7 -0 -0 -0 -1 -4 -4 -0 -0 -0 -0 -0 -44 -0 -8 -4 -16 -0 -0 -0 -0 -0 -1 -0 -6 -0 -1 -0 -0 -0 -0 -0 -92 -74 -155
-0 -2 -20 -4 -0 -0 -0 -0 -0 -0 -10 -0 -0 -0 -0 -10 -2 -1 -2 -53 -58 -11 -0 -6 -14 -0 -0 -3 -0 -0 -0 -0 -0 -1 -0 -0 -0 -0 -0 -0 -0 -0 -23 -94 -112
-0 -8 -26 -1 -0 -0 -0 -0 -0 -4 -2 -0 -1 -0 -0 -0 -2 -1 -0 -90 -123 -0 -0 -3 -0 -0 -0 -0 -5 -6 -0 -0 -0 -0 -0 -0 -0 -0 -0 -0 -0 -0 -0 -0 -0
-1 -0 -7 -1 -0 -0 -1 -0 -0 -2 -4 -0 -4 -2 -0 -0 -1 -0 -2 -74 -0 -0 -0 -0 -0 -0 -0 -0 -4 -15 -9 -2 -0 -0 -0 -0 -0 -0 -1 -0 -0 -0 -0 -0 -0
-0 -1 -3 -3 -0 -0 -0 -3 -1 -5 -0 -0 -2 -2 -0 -1 -0 -0 -2 -13 -65 -28 -0 -0 -0 -0 -0 -0 -0 -0 -0 -0 -0 -0 -0 -0 -0 -0 -0 -0 -0 -0 -0 -0 -0
-3 -16 -10 -14 -4 -0 -0 -25 -8 -18 -8 -0 -3 -2 -21 -5 -5 -20 -5 -6 -8 -23 -0 -18 -29 -7 -0 -0 -0 -0 -0 -0 -0 -0 -0 -0 -0 -0 -0 -0 -0 -0 -0 -0 -0
Wind_Speed
27 27 28 29 30 30 28 32 31 29 25 24 24 27 29 29 29 7 8 3 9 4 5 25 19 25 27 28 28 30 32 33 33 28 22 20 22 28 27 20 15 6 10 7 13
28 27 29 31 31 31 27 33 31 29 25 23 23 26 24 27 20 5 5 3 8 7 7 9 25 25 28 29 28 26 29 29 31 23 29 24 23 16 12 17 19 8 8 7 10
28 28 29 31 32 31 28 35 32 29 24 21 21 26 27 29 15 14 19 6 7 6 16 16 25 26 28 30 28 27 31 27 17 14 14 17 12 4 17 13 21 10 12 11 11
28 29 29 31 31 30 31 35 31 28 23 21 21 27 30 19 14 19 18 13 8 8 9 19 24 25 27 29 28 29 27 22 12 13 15 13 6 4 14 17 15 10 11 10 11
29 29 29 30 31 32 33 35 31 27 23 20 20 24 21 12 3 10 16 16 11 8 9 20 20 21 26 26 26 25 22 18 15 15 16 10 16 19 13 16 9 13 12 11 13
29 29 29 30 31 32 34 34 30 26 22 18 18 20 15 5 9 13 13 14 13 9 14 22 23 24 26 25 23 20 22 12 15 13 18 12 15 10 19 9 8 9 10 13 12
29 29 29 30 30 31 34 34 27 23 19 16 16 16 11 5 13 3 10 13 18 9 18 15 24 22 19 22 16 11 13 12 15 10 14 13 8 13 11 14 9 8 6 4 3
28 28 29 30 31 32 34 33 26 21 16 14 13 12 6 9 9 13 12 11 11 13 19 19 19 23 21 19 13 10 18 19 13 21 7 9 10 9 11 11 6 5 2 4 2
28 28 28 30 30 32 33 32 23 18 12 12 11 10 7 13 9 16 14 11 11 14 14 16 15 21 19 23 12 19 17 25 23 18 7 10 9 10 16 13 10 7 10 6 9
27 27 28 28 30 32 32 29 22 17 11 9 4 9 6 10 10 12 16 10 11 10 13 17 19 21 21 27 22 16 24 20 14 11 21 8 9 9 16 18 18 18 21 19 17
27 27 27 28 30 30 28 24 16 13 6 4 9 7 13 16 13 13 16 9 11 13 22 20 22 22 27 21 23 16 19 10 5 5 6 7 11 11 20 20 17 17 15 10 7
26 26 26 27 28 26 22 16 21 20 10 2 6 7 17 22 15 15 16 12 17 21 11 20 26 24 23 23 27 21 14 8 11 10 5 8 8 15 17 21 12 9 11 10 11
25 25 24 25 25 22 15 12 20 27 8 3 7 8 12 11 15 14 13 17 14 22 24 18 25 25 24 22 20 15 13 21 6 14 17 19 20 16 17 11 4 7 10 10 9
24 22 21 20 21 20 18 18 11 19 13 2 6 8 12 9 16 19 15 15 21 22 17 22 9 28 24 22 22 9 12 23 21 17 9 21 10 10 7 12 12 11 13 11 8
23 20 19 15 24 16 17 13 11 10 17 11 9 7 15 17 8 12 6 2 29 25 22 14 22 24 26 20 15 18 22 24 23 25 19 24 26 17 21 12 7 8 7 6 4
23 19 18 20 21 23 22 20 11 10 12 7 11 13 18 15 8 9 3 22 18 26 21 20 15 21 18 16 17 15 18 15 24 28 11 8 9 15 7 6 5 7 5 4 1
23 21 19 21 19 20 17 15 9 8 7 6 10 14 16 9 10 4 24 20 28 27 27 18 28 19 10 15 12 11 18 19 21 22 20 23 3 21 20 6 18 7 5 4 5
23 21 25 27 25 21 15 12 10 4 10 12 10 13 14 12 9 3 22 9 7 27 28 22 14 1 6 15 16 25 16 19 17 17 20 22 21 9 9 12 8 5 6 7 8
21 28 30 27 27 24 19 15 10 6 6 7 10 12 12 12 3 5 7 11 22 34 34 23 20 18 17 11 8 19 19 18 25 24 24 24 28 14 9 10 8 6 6 6 6
25 28 36 25 20 24 23 19 12 27 19 10 9 12 9 12 1 2 2 2 20 32 16 22 27 27 2 19 21 23 23 21 19 21 24 26 31 12 5 7 8 5 4 4 3
28 29 29 21 18 28 26 18 32 12 5 3 10 12 13 10 4 3 5 8 32 19 27 18 25 13 10 21 26 19 26 25 27 20 20 22 16 11 7 7 8 5 3 1 1
31 34 21 21 26 30 29 23 28 38 10 12 8 17 10 12 4 5 4 20 24 26 25 25 23 27 25 24 20 25 25 16 20 24 21 19 27 16 14 11 9 8 4 2 1
34 28 20 24 33 30 33 45 43 34 11 5 4 9 11 9 4 5 18 16 12 18 22 23 24 29 30 20 18 23 26 23 28 22 21 21 18 14 12 12 12 12 6 4 2
33 34 28 37 41 33 30 35 45 31 12 10 9 5 8 6 8 12 20 16 17 18 18 21 23 28 26 27 23 20 19 22 17 22 25 35 33 14 12 15 15 14 15 6 6
38 38 34 34 37 38 33 34 26 20 14 24 12 8 7 5 14 19 21 16 18 18 18 18 25 28 32 32 28 29 28 21 24 27 20 25 28 26 22 10 9 11 14 14 10
44 38 32 33 38 44 46 51 21 20 13 13 16 9 10 10 22 18 20 16 16 15 13 14 20 23 28 28 31 33 36 35 34 34 34 33 32 27 27 23 17 20 15 14 12
45 42 31 40 35 42 55 31 22 19 16 16 17 18 16 20 16 14 18 10 16 9 9 10 15 17 24 24 27 32 32 31 34 33 28 32 30 27 25 23 23 23 21 16 15
Wind_Direction
322 325 328 329 333 337 347 344 347 352 355 356 357 352 345 337 280 253 6 115 13 133 54 245 284 256 247 245 238 237 258 256 262 286 294 319 315 287 284 298 316 317 329 11 87
319 324 324 323 326 333 347 339 345 350 355 356 358 353 354 345 333 237 208 70 15 31 53 151 260 262 255 245 241 260 256 262 286 296 288 307 307 324 329 299 213 343 47 62 75
316 321 323 322 323 331 343 332 341 347 355 357 358 351 345 336 12 22 359 54 41 66 177 170 253 265 257 242 248 254 242 261 336 335 335 350 340 97 293 317 310 350 60 71 86
314 316 320 320 323 330 336 326 339 346 355 357 359 348 332 355 44 11 9 16 42 94 115 200 232 262 253 243 249 244 239 291 339 348 347 341 3 357 315 314 341 52 62 79 93
312 315 318 319 321 325 326 323 335 346 354 358 1 351 354 5 8 31 9 353 15 74 115 200 285 274 246 243 255 258 284 309 324 340 324 14 5 318 328 297 63 60 74 80 90
308 312 316 317 320 322 319 320 335 345 354 1 3 356 3 33 49 31 15 9 3 41 155 212 224 238 254 258 264 275 272 336 353 333 272 331 35 61 188 237 33 61 68 85 86
305 310 313 314 317 321 310 313 337 346 356 4 6 4 5 170 194 78 52 356 317 39 186 161 227 244 257 252 281 316 306 323 146 115 7 273 46 30 29 54 56 48 48 281 24
302 307 308 310 312 316 307 311 336 346 0 7 16 24 48 166 162 180 166 159 162 327 197 280 263 245 254 259 296 301 264 255 193 171 49 21 330 27 45 55 41 42 324 267 313
298 304 306 308 313 308 305 309 336 348 7 12 30 47 75 13 135 162 147 171 10 312 294 295 284 214 241 200 265 226 230 207 226 150 31 350 321 63 80 73 65 53 72 57 71
295 300 303 306 308 303 302 311 334 348 13 21 63 40 60 126 111 129 154 78 75 330 290 222 191 184 191 163 200 137 199 244 271 100 167 41 328 71 111 119 111 103 116 112 116
290 295 299 303 303 301 307 319 356 14 31 65 42 72 27 332 192 157 160 91 126 254 206 203 206 201 155 242 223 196 245 116 37 37 31 71 100 100 146 149 129 107 114 98 81
285 290 295 299 300 301 310 322 335 348 1 235 198 181 202 264 193 149 154 134 156 186 353 236 215 213 196 213 226 236 269 89 79 70 77 128 84 125 135 165 117 96 112 112 110
279 285 290 297 300 304 313 312 317 331 6 8 179 171 164 152 173 162 142 163 272 234 237 258 226 230 231 204 210 264 293 260 355 110 148 170 167 138 151 137 68 120 135 137 133
274 280 286 297 300 304 308 313 321 333 360 73 118 147 155 125 174 182 165 162 243 207 270 278 133 215 229 243 221 341 326 169 244 171 118 242 327 280 114 154 157 154 157 147 139
268 274 278 278 289 296 318 325 337 15 350 71 108 67 140 148 275 145 66 142 237 253 249 280 153 214 223 271 316 296 275 261 273 256 261 250 280 196 187 163 163 153 148 136 131
260 265 271 278 278 275 294 292 321 348 342 75 85 134 156 151 134 26 87 244 277 247 256 265 310 247 268 282 299 288 277 189 232 248 321 167 164 309 170 193 143 139 131 148 72
253 256 259 267 271 281 281 282 309 308 34 82 130 136 158 136 151 103 234 163 242 244 246 270 234 280 334 300 333 312 294 298 304 291 286 278 258 306 174 107 174 138 125 108 112
247 252 258 257 263 274 266 267 275 327 171 37 120 146 161 149 141 338 186 162 232 247 242 260 285 65 349 303 306 270 301 296 301 313 306 286 295 330 8 345 31 84 108 113 119
239 252 254 252 251 257 248 237 248 298 153 134 122 150 156 162 82 135 152 160 172 204 239 274 280 297 294 316 304 253 284 284 277 288 293 286 288 327 355 3 23 70 104 116 119
238 249 246 244 240 248 247 230 250 195 303 156 153 155 159 162 174 315 145 236 205 216 270 270 256 268 359 283 279 273 279 283 293 297 292 295 285 308 356 14 19 51 89 106 108
236 246 248 228 227 240 234 232 197 200 213 164 162 166 169 159 177 285 303 297 202 260 250 254 184 313 313 276 258 283 275 279 276 299 306 302 329 10 14 3 10 18 46 85 106
232 239 222 201 228 239 238 243 191 216 274 287 267 183 163 169 181 196 264 262 252 250 256 261 278 257 270 278 290 283 281 307 296 290 301 300 281 327 338 348 349 349 351 347 304
228 230 216 208 232 233 240 235 206 200 198 247 217 171 166 168 186 244 266 274 278 265 261 261 268 259 262 290 306 293 287 292 285 297 292 294 306 329 335 338 335 336 330 326 298
221 224 231 231 235 231 228 239 204 201 203 256 274 240 159 178 270 273 261 271 276 277 282 278 274 267 281 280 302 305 303 291 299 291 289 253 274 315 321 319 323 328 329 327 316
223 228 225 229 228 232 231 238 191 201 223 265 260 202 189 185 268 261 258 277 280 283 285 286 280 281 275 276 290 280 278 294 286 284 294 295 289 298 324 329 328 330 325 324 324
221 222 224 239 228 227 228 200 203 201 222 229 261 239 244 257 257 260 265 275 282 291 291 298 291 294 285 286 279 277 263 267 270 271 277 282 289 301 312 320 329 329 328 324 313
222 227 226 230 226 223 220 233 214 235 225 227 254 257 248 253 259 267 272 277 294 303 294 306 304 303 292 296 290 279 282 280 276 278 293 288 295 304 315 319 320 322 321 323 323